Weather History for Battle Creek, MI

Change the Weather History Date:

Saturday, February 15, 2014

  Actual Average Record
Temperature  
Mean Temperature 16 °F 26 °F  
Max Temperature 24 °F 35 °F 50 °F (1998)
Min Temperature 7 °F 17 °F 1 °F (2007)
Degree Days  
Heating Degree Days 49 39  
Month to date heating degree days 775 601  
Since 1 July heating degree days 4893 4484  
Cooling Degree Days 0 0  
Month to date cooling degree days 0 0  
Year to date cooling degree days 0 0  
Moisture  
Dew Point 7 °F    
Average Humidity 71    
Maximum Humidity 88    
Minimum Humidity 54    
Precipitation  
Precipitation 0.00 in 0.05 in 0.63 in (2005)
Month to date precipitation 0.03 0.64  
Year to date precipitation 0.78 2.30  
Sea Level Pressure  
Sea Level Pressure 30.01 in    
Wind  
Wind Speed 6 mph (WNW)    
Max Wind Speed 13 mph    
Max Gust Speed 16 mph    
Visibility 10 miles    
Events      
T = Trace of Precipitation, MM = Missing Value Source: NWS Daily Summary

Daily Weather History Graph

Daily Weather History Graph

Search for Another Location

Airport:

Trip Planner

Search our weather history database for the weather conditions in past years. The results will help you decide how hot, cold, wet, or windy it might be!

Date:

Astronomy

Feb. 15, 2014 Rise Set
Actual Time 7:37 AM EST 6:13 PM EST
Civil Twilight 7:08 AM EST 6:42 PM EST
Nautical Twilight 6:35 AM EST 7:15 PM EST
Astronomical Twilight 6:03 AM EST 7:47 PM EST
Moon 7:14 PM EST (2/15) 7:34 AM EST (2/15)
Length of Visible Light 11h 33m
Length of Day
10h 36m
Full, 100% of the Moon is Illuminated
Feb 15
Full
Feb 22
Last Quarter
Mar 1
New
Mar 8
First Quarter
Mar 16
Full

Hourly Weather History & Observations

Time (EST) Temp. Windchill Dew Point Humidity Pressure Visibility Wind Dir Wind Speed Gust Speed Precip Events Conditions
12:53 AM 18.0 °F 6.9 °F 12.0 °F 78% 29.87 in 10.0 mi NW 9.2 mph - N/A   Overcast
1:39 AM 16.0 °F 5.3 °F 10.9 °F 81% 29.84 in 10.0 mi North 8.1 mph - N/A   Scattered Clouds
1:53 AM 16.0 °F 5.3 °F 10.0 °F 77% 29.88 in 10.0 mi NNE 8.1 mph - N/A   Clear
2:53 AM 14.0 °F 3.9 °F 7.0 °F 74% 29.90 in 10.0 mi North 6.9 mph - N/A   Clear
3:53 AM 12.0 °F 2.7 °F 5.0 °F 73% 29.94 in 10.0 mi NNW 5.8 mph - N/A   Clear
4:53 AM 10.9 °F 1.4 °F 5.0 °F 77% 29.96 in 10.0 mi NNW 5.8 mph - N/A   Mostly Cloudy
5:27 AM 10.0 °F 0.4 °F 3.9 °F 76% 29.94 in 10.0 mi NNW 5.8 mph - N/A   Mostly Cloudy
5:53 AM 10.9 °F 0.2 °F 5.0 °F 77% 30.00 in 10.0 mi NNW 6.9 mph - N/A   Overcast
6:53 AM 9.0 °F -0.9 °F 3.9 °F 80% 30.02 in 10.0 mi North 5.8 mph - N/A   Overcast
7:53 AM 7.0 °F -1.7 °F 1.9 °F 80% 30.04 in 8.0 mi North 4.6 mph - N/A   Overcast
8:53 AM 7.0 °F - 3.0 °F 84% 30.06 in 10.0 mi Calm Calm - N/A   Mostly Cloudy
9:00 AM 10.0 °F 3.6 °F 3.0 °F 73% 30.01 in 10.0 mi Variable 3.5 mph - N/A   Partly Cloudy
9:53 AM 12.0 °F 4.1 °F 3.9 °F 70% 30.06 in 10.0 mi NNE 4.6 mph - N/A   Clear
10:53 AM 14.0 °F 3.9 °F 5.0 °F 67% 30.08 in 10.0 mi NW 6.9 mph - N/A   Clear
11:53 AM 17.1 °F 7.6 °F 7.0 °F 65% 30.09 in 10.0 mi NW 6.9 mph - N/A   Clear
12:53 PM 19.0 °F 10.0 °F 8.1 °F 62% 30.07 in 10.0 mi WNW 6.9 mph - 0.00 in   Clear
1:53 PM 21.0 °F 13.4 °F 8.1 °F 57% 30.06 in 10.0 mi WNW 5.8 mph - N/A   Clear
2:53 PM 23.0 °F 17.0 °F 8.1 °F 53% 30.04 in 10.0 mi West 4.6 mph - N/A   Clear
3:53 PM 23.0 °F 11.7 °F 10.0 °F 58% 30.04 in 10.0 mi SSW 11.5 mph - N/A   Clear
4:53 PM 23.0 °F 11.7 °F 10.0 °F 58% 30.04 in 10.0 mi SSW 11.5 mph - N/A   Clear
5:53 PM 21.0 °F 12.4 °F 9.0 °F 60% 30.06 in 10.0 mi SSW 6.9 mph - N/A   Clear
6:53 PM 19.0 °F 13.9 °F 9.0 °F 65% 30.06 in 10.0 mi South 3.5 mph - N/A   Clear
7:53 PM 19.9 °F 13.4 °F 9.0 °F 62% 30.06 in 10.0 mi SSE 4.6 mph - N/A   Clear
8:53 PM 18.0 °F 8.7 °F 9.0 °F 68% 30.06 in 10.0 mi SSW 6.9 mph - N/A   Scattered Clouds
9:53 PM 18.0 °F 8.7 °F 10.9 °F 74% 30.06 in 9.0 mi SSW 6.9 mph - N/A   Overcast
10:53 PM 18.0 °F 8.7 °F 10.0 °F 71% 30.05 in 10.0 mi SSW 6.9 mph - N/A   Overcast
11:53 PM 17.1 °F 8.7 °F 9.0 °F 71% 30.02 in 10.0 mi South 5.8 mph - N/A   Overcast